Back to catalog

STARLINK-3801

AliveCommunicationsVLEO
NORAD 52356·PAYLOAD·🇺🇸 United States

Launched Apr 29, 2022 from Cape Canaveral Space Force Station

Loading…

Next Passes (next 24 hours)

TLE

FreshSource: CelesTrak SupGP

Epoch: Sep 14, 2026, 14:24 UTC

1 52356C 22045AB  26257.60048611 -.00046199  00000+0 -13654-2 0  2570
2 52356  53.1591  56.9895 0001216  89.2797  21.0968 15.34403503    16

Track STARLINK-3801 in real time with AllMySat

Download on the App Store